Time,TemperatureF,DewpointF,PressureIn,WindDirection,WindDirectionDegrees,WindSpeedMPH,WindSpeedGustMPH,Humidity,HourlyPrecipIn,Conditions,Clouds,dailyrainin,SoftwareType,DateUTC
2013-07-01 00:01:00,68.4,28.0,30.18,WNW,284,0.0,0.0,22,0.00,,,0.00,WeatherDisplay:10.37,2013-07-01 07:01:00,
2013-07-01 00:12:00,68.2,27.9,30.18,WNW,284,0.0,0.0,22,0.00,,,0.00,WeatherDisplay:10.37,2013-07-01 07:12:00,
2013-07-01 00:21:00,68.0,27.7,30.18,WNW,292,0.0,0.0,22,0.00,,,0.00,WeatherDisplay:10.37,2013-07-01 07:21:00,
2013-07-01 00:31:00,67.8,28.6,30.18,WNW,293,0.0,0.0,23,0.00,,,0.00,WeatherDisplay:10.37,2013-07-01 07:31:00,
2013-07-01 00:41:00,67.6,28.5,30.18,WNW,293,0.0,0.0,23,0.00,,,0.00,WeatherDisplay:10.37,2013-07-01 07:41:00,
2013-07-01 00:51:00,67.5,28.3,30.18,WNW,293,0.0,0.0,23,0.00,,,0.00,WeatherDisplay:10.37,2013-07-01 07:51:00,
2013-07-01 01:01:00,67.3,28.2,30.18,WNW,293,0.0,0.0,23,0.00,,,0.00,WeatherDisplay:10.37,2013-07-01 08:01:00,
2013-07-01 01:06:00,67.3,28.2,30.18,WNW,293,0.0,0.0,23,0.00,,,0.00,WeatherDisplay:10.37,2013-07-01 08:06:00,
2013-07-01 01:11:00,67.1,28.0,30.18,WNW,293,0.0,0.0,23,0.00,,,0.00,WeatherDisplay:10.37,2013-07-01 08:11:00,
2013-07-01 01:21:00,66.6,27.6,30.18,WNW,293,0.0,0.0,23,0.00,,,0.00,WeatherDisplay:10.37,2013-07-01 08:21:00,
2013-07-01 01:26:00,66.4,27.4,30.18,WNW,303,0.0,0.0,23,0.00,,,0.00,WeatherDisplay:10.37,2013-07-01 08:26:00,
2013-07-01 01:31:00,66.4,27.4,30.18,NW,320,0.0,0.0,23,0.00,,,0.00,WeatherDisplay:10.37,2013-07-01 08:31:00,
2013-07-01 01:36:00,66.4,27.4,30.18,NNW,328,0.0,0.0,23,0.00,,,0.00,WeatherDisplay:10.37,2013-07-01 08:36:00,
2013-07-01 01:41:00,66.4,27.4,30.18,NNW,328,0.0,0.0,23,0.00,,,0.00,WeatherDisplay:10.37,2013-07-01 08:41:00,
2013-07-01 01:51:00,66.4,27.4,30.18,NNW,328,0.0,0.0,23,0.00,,,0.00,WeatherDisplay:10.37,2013-07-01 08:51:00,
2013-07-01 01:56:00,66.2,27.3,30.18,NNW,328,0.0,0.0,23,0.00,,,0.00,WeatherDisplay:10.37,2013-07-01 08:56:00,
2013-07-01 02:01:00,66.2,27.3,30.18,NNW,328,0.0,0.0,23,0.00,,,0.00,WeatherDisplay:10.37,2013-07-01 09:01:00,
2013-07-01 02:11:00,65.8,26.9,30.18,NNW,328,0.0,0.0,23,0.00,,,0.00,WeatherDisplay:10.37,2013-07-01 09:11:00,
2013-07-01 02:16:00,65.7,26.8,30.18,NNW,328,0.0,0.0,23,0.00,,,0.00,WeatherDisplay:10.37,2013-07-01 09:16:00,
2013-07-01 02:21:00,65.7,26.9,30.18,NNW,328,0.0,0.0,23,0.00,,,0.00,WeatherDisplay:10.37,2013-07-01 09:21:00,
2013-07-01 02:26:00,65.8,27.0,30.18,NNW,328,0.0,0.0,23,0.00,,,0.00,WeatherDisplay:10.37,2013-07-01 09:26:00,
2013-07-01 02:31:00,65.8,27.0,30.18,NNW,328,0.0,0.0,23,0.00,,,0.00,WeatherDisplay:10.37,2013-07-01 09:31:00,
2013-07-01 02:36:00,65.8,28.0,30.18,NNW,328,0.0,0.0,24,0.00,,,0.00,WeatherDisplay:10.37,2013-07-01 09:36:00,
2013-07-01 02:41:00,65.7,27.9,30.18,NNW,328,0.0,0.0,24,0.00,,,0.00,WeatherDisplay:10.37,2013-07-01 09:41:00,
2013-07-01 02:46:00,65.3,27.6,30.18,NNW,328,0.0,0.0,24,0.00,,,0.00,WeatherDisplay:10.37,2013-07-01 09:46:00,
2013-07-01 02:51:00,64.9,27.2,30.18,NNW,328,0.0,0.0,24,0.00,,,0.00,WeatherDisplay:10.37,2013-07-01 09:51:00,
2013-07-01 03:01:00,64.6,26.9,30.18,NNW,328,0.0,0.0,24,0.00,,,0.00,WeatherDisplay:10.37,2013-07-01 10:01:00,
2013-07-01 03:06:00,64.6,26.9,30.18,NNW,328,0.0,0.0,24,0.00,,,0.00,WeatherDisplay:10.37,2013-07-01 10:06:00,
2013-07-01 03:11:00,64.6,26.9,30.18,NNW,328,0.0,0.0,24,0.00,,,0.00,WeatherDisplay:10.37,2013-07-01 10:11:00,
2013-07-01 03:21:00,64.8,27.1,30.18,NNW,328,0.0,0.0,24,0.00,,,0.00,WeatherDisplay:10.37,2013-07-01 10:21:00,
2013-07-01 03:26:00,64.6,26.9,30.18,NNW,328,0.0,0.0,24,0.00,,,0.00,WeatherDisplay:10.37,2013-07-01 10:26:00,
2013-07-01 03:31:00,64.4,26.8,30.18,NNW,328,0.0,0.0,24,0.00,,,0.00,WeatherDisplay:10.37,2013-07-01 10:31:00,
2013-07-01 03:41:00,64.0,26.5,30.18,NNW,328,0.0,0.0,24,0.00,,,0.00,WeatherDisplay:10.37,2013-07-01 10:41:00,
2013-07-01 03:51:00,64.0,26.5,30.18,NNW,328,0.0,0.0,24,0.00,,,0.00,WeatherDisplay:10.37,2013-07-01 10:51:00,
2013-07-01 04:01:00,64.6,26.9,30.18,NW,322,0.0,0.0,24,0.00,,,0.00,WeatherDisplay:10.37,2013-07-01 11:01:00,
2013-07-01 04:06:00,64.6,26.9,30.18,NW,308,0.0,0.0,24,0.00,,,0.00,WeatherDisplay:10.37,2013-07-01 11:06:00,
2013-07-01 04:11:00,64.4,26.8,30.18,WNW,302,0.0,0.0,24,0.00,,,0.00,WeatherDisplay:10.37,2013-07-01 11:11:00,
2013-07-01 04:16:00,63.9,27.3,30.18,NW,309,0.0,0.0,25,0.00,,,0.00,WeatherDisplay:10.37,2013-07-01 11:16:00,
2013-07-01 04:21:00,63.7,27.2,30.18,WNW,293,0.0,0.0,25,0.00,,,0.00,WeatherDisplay:10.37,2013-07-01 11:21:00,
2013-07-01 04:31:00,63.1,27.7,30.21,WNW,297,1.0,3.0,26,0.00,,,0.00,WeatherDisplay:10.37,2013-07-01 11:31:00,
2013-07-01 04:41:00,62.8,34.0,30.21,WNW,292,0.0,0.0,34,0.00,,,0.00,WeatherDisplay:10.37,2013-07-01 11:41:00,
2013-07-01 04:51:00,62.7,36.7,30.21,WNW,292,0.0,0.0,38,0.00,,,0.00,WeatherDisplay:10.37,2013-07-01 11:51:00,
2013-07-01 05:01:00,63.5,34.6,30.21,WNW,292,0.0,0.0,34,0.00,,,0.00,WeatherDisplay:10.37,2013-07-01 12:01:00,
2013-07-01 05:06:00,64.2,35.2,30.21,WNW,292,0.0,0.0,34,0.00,,,0.00,WeatherDisplay:10.37,2013-07-01 12:06:00,
2013-07-01 05:11:00,64.7,34.9,30.21,WNW,292,0.0,0.0,33,0.00,,,0.00,WeatherDisplay:10.37,2013-07-01 12:11:00,
2013-07-01 05:21:00,65.5,34.1,30.21,WNW,292,0.0,0.0,31,0.00,,,0.00,WeatherDisplay:10.37,2013-07-01 12:21:00,
2013-07-01 05:31:00,66.0,33.7,30.21,WNW,292,0.0,0.0,30,0.00,,,0.00,WeatherDisplay:10.37,2013-07-01 12:31:00,
2013-07-01 05:41:00,66.0,32.8,30.21,WNW,292,0.0,0.0,29,0.00,,,0.00,WeatherDisplay:10.37,2013-07-01 12:41:00,
2013-07-01 05:51:00,65.8,32.7,30.21,WNW,292,0.0,0.0,29,0.00,,,0.00,WeatherDisplay:10.37,2013-07-01 12:51:00,
2013-07-01 06:01:00,66.0,32.0,30.21,WNW,292,0.0,0.0,28,0.00,,,0.00,WeatherDisplay:10.37,2013-07-01 13:01:00,
2013-07-01 06:06:00,66.2,32.1,30.21,WNW,292,0.0,0.0,28,0.00,,,0.00,WeatherDisplay:10.37,2013-07-01 13:06:00,
2013-07-01 06:11:00,66.4,31.4,30.21,WNW,292,0.0,0.0,27,0.00,,,0.00,WeatherDisplay:10.37,2013-07-01 13:11:00,
2013-07-01 06:21:00,67.3,32.1,30.21,WNW,292,0.0,0.0,27,0.00,,,0.00,WeatherDisplay:10.37,2013-07-01 13:21:00,
2013-07-01 06:31:00,67.8,32.6,30.21,NW,315,0.0,0.0,27,0.00,,,0.00,WeatherDisplay:10.37,2013-07-01 13:31:00,
2013-07-01 06:41:00,67.8,32.6,30.21,NW,320,0.0,0.0,27,0.00,,,0.00,WeatherDisplay:10.37,2013-07-01 13:41:00,
2013-07-01 06:51:00,68.4,33.1,30.21,NNE,23,0.0,0.0,27,0.00,,,0.00,WeatherDisplay:10.37,2013-07-01 13:51:00,
2013-07-01 07:01:00,68.4,33.1,30.21,NNE,24,0.0,0.0,27,0.00,,,0.00,WeatherDisplay:10.37,2013-07-01 14:01:00,
2013-07-01 07:06:00,68.5,33.2,30.21,NNE,24,0.0,0.0,27,0.00,,,0.00,WeatherDisplay:10.37,2013-07-01 14:06:00,
2013-07-01 07:11:00,68.7,33.4,30.21,NNE,24,0.0,0.0,27,0.00,,,0.00,WeatherDisplay:10.37,2013-07-01 14:11:00,
2013-07-01 07:21:00,69.4,34.9,30.21,NNE,24,0.0,0.0,28,0.00,,,0.00,WeatherDisplay:10.37,2013-07-01 14:21:00,
2013-07-01 07:31:00,69.6,35.9,30.21,NNE,24,0.0,0.0,29,0.00,,,0.00,WeatherDisplay:10.37,2013-07-01 14:31:00,
2013-07-01 07:41:00,69.4,38.3,30.21,NW,321,0.0,0.0,32,0.00,,,0.00,WeatherDisplay:10.37,2013-07-01 14:41:00,
2013-07-01 07:51:00,70.2,38.9,30.21,WSW,256,0.0,0.0,32,0.00,,,0.00,WeatherDisplay:10.37,2013-07-01 14:51:00,
2013-07-01 07:56:00,70.7,39.4,30.21,WSW,256,0.0,0.0,32,0.00,,,0.00,WeatherDisplay:10.37,2013-07-01 14:56:00,
2013-07-01 08:06:00,71.8,40.3,30.21,WSW,256,0.0,0.0,32,0.00,,,0.00,WeatherDisplay:10.37,2013-07-01 15:06:00,
2013-07-01 08:11:00,72.1,40.6,30.21,WSW,256,0.0,0.0,32,0.00,,,0.00,WeatherDisplay:10.37,2013-07-01 15:11:00,
2013-07-01 08:21:00,72.8,42.0,30.21,WSW,256,0.0,0.0,33,0.00,,,0.00,WeatherDisplay:10.37,2013-07-01 15:21:00,
2013-07-01 08:26:00,73.0,42.2,30.21,WSW,256,0.0,0.0,33,0.00,,,0.00,WeatherDisplay:10.37,2013-07-01 15:26:00,
2013-07-01 08:36:00,73.8,41.2,30.21,WSW,243,0.0,0.0,31,0.00,,,0.00,WeatherDisplay:10.37,2013-07-01 15:36:00,
2013-07-01 08:41:00,73.9,39.7,30.21,SW,228,0.0,0.0,29,0.00,,,0.00,WeatherDisplay:10.37,2013-07-01 15:41:00,
2013-07-01 08:51:00,74.5,38.3,30.21,SW,225,0.0,0.0,27,0.00,,,0.00,WeatherDisplay:10.37,2013-07-01 15:51:00,
2013-07-01 09:01:00,75.2,38.9,30.21,SW,225,0.0,0.0,27,0.00,,,0.00,WeatherDisplay:10.37,2013-07-01 16:01:00,
2013-07-01 09:06:00,75.4,39.1,30.21,SW,225,0.0,0.0,27,0.00,,,0.00,WeatherDisplay:10.37,2013-07-01 16:06:00,
2013-07-01 09:11:00,75.4,39.1,30.21,SW,225,0.0,0.0,27,0.00,,,0.00,WeatherDisplay:10.37,2013-07-01 16:11:00,
2013-07-01 09:16:00,75.6,39.2,30.21,SW,225,0.0,0.0,27,0.00,,,0.00,WeatherDisplay:10.37,2013-07-01 16:16:00,
2013-07-01 09:21:00,75.7,38.4,30.21,SW,225,0.0,0.0,26,0.00,,,0.00,WeatherDisplay:10.37,2013-07-01 16:21:00,
2013-07-01 09:31:00,77.4,38.8,30.21,SW,229,0.0,0.0,25,0.00,,,0.00,WeatherDisplay:10.37,2013-07-01 16:31:00,
2013-07-01 09:41:00,79.7,38.6,30.21,SW,216,2.0,3.0,23,0.00,,,0.00,WeatherDisplay:10.37,2013-07-01 16:41:00,
2013-07-01 09:51:00,79.5,38.4,30.21,South,190,0.0,0.0,23,0.00,,,0.00,WeatherDisplay:10.37,2013-07-01 16:51:00,
2013-07-01 10:01:00,79.3,38.3,30.21,South,177,0.0,4.0,23,0.00,,,0.00,WeatherDisplay:10.37,2013-07-01 17:01:00,
2013-07-01 10:06:00,79.9,37.6,30.21,North,355,0.0,6.0,22,0.00,,,0.00,WeatherDisplay:10.37,2013-07-01 17:06:00,
2013-07-01 10:11:00,80.5,36.9,30.21,NNE,31,1.0,6.0,21,0.00,,,0.00,WeatherDisplay:10.37,2013-07-01 17:11:00,
2013-07-01 10:21:00,81.1,37.5,30.21,ENE,78,0.0,0.0,21,0.00,,,0.00,WeatherDisplay:10.37,2013-07-01 17:21:00,
2013-07-01 10:31:00,81.1,37.5,30.21,SSE,147,0.0,0.0,21,0.00,,,0.00,WeatherDisplay:10.37,2013-07-01 17:31:00,
2013-07-01 10:41:00,81.0,37.3,30.21,SW,215,0.0,3.0,21,0.00,,,0.00,WeatherDisplay:10.37,2013-07-01 17:41:00,
2013-07-01 10:51:00,81.6,37.9,30.21,SSW,206,0.0,3.0,21,0.00,,,0.00,WeatherDisplay:10.37,2013-07-01 17:51:00,
2013-07-01 11:01:00,84.3,38.8,30.21,SSW,199,3.0,6.0,20,0.00,,,0.00,WeatherDisplay:10.37,2013-07-01 18:01:00,
2013-07-01 11:06:00,85.4,38.4,30.21,South,189,0.0,3.0,19,0.00,,,0.00,WeatherDisplay:10.37,2013-07-01 18:06:00,
2013-07-01 11:11:00,85.3,38.4,30.21,South,177,0.0,3.0,19,0.00,,,0.00,WeatherDisplay:10.37,2013-07-01 18:11:00,
2013-07-01 11:21:00,84.0,37.3,30.21,SSW,206,1.0,4.0,19,0.00,,,0.00,WeatherDisplay:10.37,2013-07-01 18:21:00,
2013-07-01 11:31:00,83.9,38.5,30.21,SW,219,1.0,4.0,20,0.00,,,0.00,WeatherDisplay:10.37,2013-07-01 18:31:00,
2013-07-01 11:41:00,83.5,38.2,30.21,SSW,209,2.0,6.0,20,0.00,,,0.00,WeatherDisplay:10.37,2013-07-01 18:41:00,
2013-07-01 11:51:00,82.2,38.4,30.21,SW,214,0.0,0.0,21,0.00,,,0.00,WeatherDisplay:10.37,2013-07-01 18:51:00,
2013-07-01 12:01:00,81.3,37.6,30.21,WSW,241,0.0,4.0,21,0.00,,,0.00,WeatherDisplay:10.37,2013-07-01 19:01:00,
2013-07-01 12:06:00,80.7,37.2,30.21,SW,217,2.0,4.0,21,0.00,,,0.00,WeatherDisplay:10.37,2013-07-01 19:06:00,
2013-07-01 12:11:00,80.0,37.7,30.21,SW,230,3.0,6.0,22,0.00,,,0.00,WeatherDisplay:10.37,2013-07-01 19:11:00,
2013-07-01 12:16:00,79.5,37.3,30.21,WSW,237,0.0,6.0,22,0.00,,,0.00,WeatherDisplay:10.37,2013-07-01 19:16:00,
2013-07-01 12:21:00,79.3,37.2,30.21,WSW,237,1.0,4.0,22,0.00,,,0.00,WeatherDisplay:10.37,2013-07-01 19:21:00,
2013-07-01 12:26:00,79.3,37.2,30.21,WSW,238,2.0,6.0,22,0.00,,,0.00,WeatherDisplay:10.37,2013-07-01 19:26:00,
2013-07-01 12:31:00,79.2,37.0,30.21,WSW,242,0.0,6.0,22,0.00,,,0.00,WeatherDisplay:10.37,2013-07-01 19:31:00,
2013-07-01 12:41:00,80.1,37.8,30.21,SW,219,2.0,4.0,22,0.00,,,0.00,WeatherDisplay:10.37,2013-07-01 19:41:00,
2013-07-01 12:51:00,80.1,38.9,30.21,SW,227,1.0,5.0,23,0.00,,,0.00,WeatherDisplay:10.37,2013-07-01 19:51:00,
2013-07-01 13:01:00,79.2,39.2,30.21,WSW,255,0.0,4.0,24,0.00,,,0.00,WeatherDisplay:10.37,2013-07-01 20:01:00,
2013-07-01 13:06:00,79.0,39.1,30.21,SW,233,0.0,4.0,24,0.00,,,0.00,WeatherDisplay:10.37,2013-07-01 20:06:00,
2013-07-01 13:11:00,78.8,40.0,30.21,SW,226,3.0,6.0,25,0.00,,,0.00,WeatherDisplay:10.37,2013-07-01 20:11:00,
2013-07-01 13:21:00,78.3,41.5,30.21,SW,223,0.0,6.0,27,0.00,,,0.00,WeatherDisplay:10.37,2013-07-01 20:21:00,
2013-07-01 13:31:00,77.5,40.9,30.21,WSW,247,0.0,0.0,27,0.00,,,0.00,WeatherDisplay:10.37,2013-07-01 20:31:00,
2013-07-01 13:41:00,77.9,42.2,30.21,SSW,208,3.0,6.0,28,0.00,,,0.00,WeatherDisplay:10.37,2013-07-01 20:41:00,
2013-07-01 13:51:00,80.1,43.1,30.21,South,182,3.0,9.0,27,0.00,,,0.00,WeatherDisplay:10.37,2013-07-01 20:51:00,
2013-07-01 14:01:00,81.0,42.8,30.21,SSW,197,1.0,6.0,26,0.00,,,0.00,WeatherDisplay:10.37,2013-07-01 21:01:00,
2013-07-01 14:06:00,81.4,42.2,30.21,SSW,202,2.0,5.0,25,0.00,,,0.00,WeatherDisplay:10.37,2013-07-01 21:06:00,
2013-07-01 14:11:00,81.9,41.5,30.21,SW,220,5.0,8.0,24,0.00,,,0.00,WeatherDisplay:10.37,2013-07-01 21:11:00,
2013-07-01 14:16:00,81.2,41.0,30.18,SW,233,2.0,9.0,24,0.00,,,0.00,WeatherDisplay:10.37,2013-07-01 21:16:00,
2013-07-01 14:21:00,80.1,41.1,30.18,SW,227,1.0,9.0,25,0.00,,,0.00,WeatherDisplay:10.37,2013-07-01 21:21:00,
2013-07-01 14:31:00,78.6,39.8,30.21,SW,221,6.0,11.0,25,0.00,,,0.00,WeatherDisplay:10.37,2013-07-01 21:31:00,
2013-07-01 14:41:00,77.4,39.8,30.21,WSW,243,3.0,6.0,26,0.00,,,0.00,WeatherDisplay:10.37,2013-07-01 21:41:00,
2013-07-01 14:46:00,76.8,40.3,30.21,WNW,284,0.0,4.0,27,0.00,,,0.00,WeatherDisplay:10.37,2013-07-01 21:46:00,
2013-07-01 14:51:00,77.0,40.4,30.21,SW,214,0.0,8.0,27,0.00,,,0.00,WeatherDisplay:10.37,2013-07-01 21:51:00,
2013-07-01 15:01:00,78.9,41.1,30.21,SW,225,5.0,8.0,26,0.00,,,0.00,WeatherDisplay:10.37,2013-07-01 22:01:00,
2013-07-01 15:06:00,79.8,41.9,30.21,SW,222,5.0,9.0,26,0.00,,,0.00,WeatherDisplay:10.37,2013-07-01 22:06:00,
2013-07-01 15:11:00,80.6,40.5,30.21,SW,228,3.0,9.0,24,0.00,,,0.00,WeatherDisplay:10.37,2013-07-01 22:11:00,
2013-07-01 15:21:00,81.3,41.1,30.21,WSW,241,3.0,6.0,24,0.00,,,0.00,WeatherDisplay:10.37,2013-07-01 22:21:00,
2013-07-01 15:31:00,81.1,40.9,30.21,SSW,209,3.0,8.0,24,0.00,,,0.00,WeatherDisplay:10.37,2013-07-01 22:31:00,
2013-07-01 15:41:00,80.6,40.5,30.21,SSW,209,2.0,6.0,24,0.00,,,0.00,WeatherDisplay:10.37,2013-07-01 22:41:00,
2013-07-01 15:51:00,79.9,39.9,30.21,SW,217,5.0,6.0,24,0.00,,,0.00,WeatherDisplay:10.37,2013-07-01 22:51:00,
2013-07-01 16:01:00,79.5,40.6,30.21,SW,220,3.0,9.0,25,0.00,,,0.00,WeatherDisplay:10.37,2013-07-01 23:01:00,
2013-07-01 16:06:00,79.2,40.3,30.21,SSW,195,1.0,6.0,25,0.00,,,0.00,WeatherDisplay:10.37,2013-07-01 23:06:00,
2013-07-01 16:11:00,78.8,41.0,30.21,South,176,1.0,7.0,26,0.00,,,0.00,WeatherDisplay:10.37,2013-07-01 23:11:00,
2013-07-01 16:21:00,77.5,40.9,30.18,SW,215,3.0,9.0,27,0.00,,,0.00,WeatherDisplay:10.37,2013-07-01 23:21:00,
2013-07-01 16:31:00,77.8,42.1,30.18,SSW,204,0.0,5.0,28,0.00,,,0.00,WeatherDisplay:10.37,2013-07-01 23:31:00,
2013-07-01 16:36:00,77.8,42.0,30.18,South,188,3.0,6.0,28,0.00,,,0.00,WeatherDisplay:10.37,2013-07-01 23:36:00,
2013-07-01 16:41:00,77.4,42.7,30.18,SW,232,3.0,6.0,29,0.00,,,0.00,WeatherDisplay:10.37,2013-07-01 23:41:00,
2013-07-01 16:51:00,77.2,43.3,30.18,SSW,213,2.0,6.0,30,0.00,,,0.00,WeatherDisplay:10.37,2013-07-01 23:51:00,
2013-07-01 17:01:00,76.8,43.0,30.18,SW,228,2.0,6.0,30,0.00,,,0.00,WeatherDisplay:10.37,2013-07-02 00:01:00,
2013-07-01 17:06:00,76.5,43.6,30.18,SW,234,0.0,4.0,31,0.00,,,0.00,WeatherDisplay:10.37,2013-07-02 00:06:00,
2013-07-01 17:11:00,76.5,43.6,30.18,SW,218,1.0,5.0,31,0.00,,,0.00,WeatherDisplay:10.37,2013-07-02 00:11:00,
2013-07-01 17:16:00,76.8,43.9,30.18,SW,215,3.0,6.0,31,0.00,,,0.00,WeatherDisplay:10.37,2013-07-02 00:16:00,
2013-07-01 17:26:00,77.4,43.5,30.18,SW,223,5.0,9.0,30,0.00,,,0.00,WeatherDisplay:10.37,2013-07-02 00:26:00,
2013-07-01 17:31:00,77.5,43.6,30.18,SW,214,3.0,7.0,30,0.00,,,0.00,WeatherDisplay:10.37,2013-07-02 00:31:00,
2013-07-01 17:41:00,77.5,43.6,30.18,SSW,207,5.0,8.0,30,0.00,,,0.00,WeatherDisplay:10.37,2013-07-02 00:41:00,
2013-07-01 17:46:00,77.4,43.5,30.18,SSW,204,3.0,8.0,30,0.00,,,0.00,WeatherDisplay:10.37,2013-07-02 00:46:00,
2013-07-01 17:51:00,77.0,43.2,30.18,SSW,213,3.0,7.0,30,0.00,,,0.00,WeatherDisplay:10.37,2013-07-02 00:51:00,
2013-07-01 18:01:00,76.3,43.4,30.18,SW,219,5.0,10.0,31,0.00,,,0.00,WeatherDisplay:10.37,2013-07-02 01:01:00,
2013-07-01 18:06:00,75.9,43.1,30.18,SSW,207,2.0,8.0,31,0.00,,,0.00,WeatherDisplay:10.37,2013-07-02 01:06:00,
2013-07-01 18:11:00,75.7,42.9,30.18,South,185,0.0,5.0,31,0.00,,,0.00,WeatherDisplay:10.37,2013-07-02 01:11:00,
2013-07-01 18:21:00,75.0,43.1,30.21,SW,219,1.0,5.0,32,0.00,,,0.00,WeatherDisplay:10.37,2013-07-02 01:21:00,
2013-07-01 18:31:00,74.5,42.7,30.21,SW,219,3.0,6.0,32,0.00,,,0.00,WeatherDisplay:10.37,2013-07-02 01:31:00,
2013-07-01 18:41:00,73.8,42.0,30.21,SW,224,2.0,6.0,32,0.00,,,0.00,WeatherDisplay:10.37,2013-07-02 01:41:00,
2013-07-01 18:51:00,73.1,42.3,30.21,SW,228,0.0,6.0,33,0.00,,,0.00,WeatherDisplay:10.37,2013-07-02 01:51:00,
2013-07-01 19:01:00,72.4,41.6,30.21,WSW,244,0.0,3.0,33,0.00,,,0.00,WeatherDisplay:10.37,2013-07-02 02:01:00,
2013-07-01 19:06:00,72.1,41.4,30.21,SW,233,0.0,3.0,33,0.00,,,0.00,WeatherDisplay:10.37,2013-07-02 02:06:00,
2013-07-01 19:11:00,71.8,41.1,30.21,SW,233,1.0,5.0,33,0.00,,,0.00,WeatherDisplay:10.37,2013-07-02 02:11:00,
2013-07-01 19:16:00,71.4,40.8,30.21,SW,229,0.0,3.0,33,0.00,,,0.00,WeatherDisplay:10.37,2013-07-02 02:16:00,
2013-07-01 19:21:00,71.2,40.6,30.21,SW,225,0.0,8.0,33,0.00,,,0.00,WeatherDisplay:10.37,2013-07-02 02:21:00,
2013-07-01 19:31:00,70.6,40.8,30.21,WSW,247,3.0,6.0,34,0.00,,,0.00,WeatherDisplay:10.37,2013-07-02 02:31:00,
2013-07-01 19:41:00,70.1,41.2,30.21,SW,221,0.0,0.0,35,0.00,,,0.00,WeatherDisplay:10.37,2013-07-02 02:41:00,
2013-07-01 19:51:00,69.4,41.3,30.21,West,264,0.0,5.0,36,0.00,,,0.00,WeatherDisplay:10.37,2013-07-02 02:51:00,
2013-07-01 20:01:00,68.9,40.1,30.21,SW,214,0.0,3.0,35,0.00,,,0.00,WeatherDisplay:10.37,2013-07-02 03:01:00,
2013-07-01 20:06:00,68.5,39.8,30.21,SW,219,0.0,3.0,35,0.00,,,0.00,WeatherDisplay:10.37,2013-07-02 03:06:00,
2013-07-01 20:11:00,68.4,39.6,30.21,WSW,238,1.0,4.0,35,0.00,,,0.00,WeatherDisplay:10.37,2013-07-02 03:11:00,
2013-07-01 20:21:00,67.8,39.9,30.21,South,172,0.0,0.0,36,0.00,,,0.00,WeatherDisplay:10.37,2013-07-02 03:21:00,
2013-07-01 20:31:00,67.5,39.6,30.21,North,6,0.0,0.0,36,0.00,,,0.00,WeatherDisplay:10.37,2013-07-02 03:31:00,
2013-07-01 20:41:00,67.2,39.4,30.21,NE,42,0.0,4.0,36,0.00,,,0.00,WeatherDisplay:10.37,2013-07-02 03:41:00,
2013-07-01 20:51:00,66.9,38.4,30.21,NNE,13,0.0,0.0,35,0.00,,,0.00,WeatherDisplay:10.37,2013-07-02 03:51:00,
2013-07-01 20:56:00,66.7,38.2,30.21,North,0,0.0,0.0,35,0.00,,,0.00,WeatherDisplay:10.37,2013-07-02 03:56:00,
2013-07-01 21:01:00,66.7,38.2,30.21,NNE,15,0.0,0.0,35,0.00,,,0.00,WeatherDisplay:10.37,2013-07-02 04:01:00,
2013-07-01 21:06:00,66.6,38.8,30.21,NNE,32,0.0,0.0,36,0.00,,,0.00,WeatherDisplay:10.37,2013-07-02 04:06:00,
2013-07-01 21:11:00,66.6,38.0,30.21,NNE,24,0.0,0.0,35,0.00,,,0.00,WeatherDisplay:10.37,2013-07-02 04:11:00,
2013-07-01 21:16:00,66.6,38.0,30.21,NNE,12,0.0,0.0,35,0.00,,,0.00,WeatherDisplay:10.37,2013-07-02 04:16:00,
2013-07-01 21:21:00,66.6,38.8,30.21,North,9,0.0,0.0,36,0.00,,,0.00,WeatherDisplay:10.37,2013-07-02 04:21:00,
2013-07-01 21:26:00,66.6,38.8,30.21,North,9,0.0,0.0,36,0.00,,,0.00,WeatherDisplay:10.37,2013-07-02 04:26:00,
2013-07-01 21:31:00,66.4,38.6,30.21,North,9,0.0,0.0,36,0.00,,,0.00,WeatherDisplay:10.37,2013-07-02 04:31:00,
2013-07-01 21:41:00,66.2,38.4,30.21,North,9,0.0,0.0,36,0.00,,,0.00,WeatherDisplay:10.37,2013-07-02 04:41:00,
2013-07-01 21:51:00,65.7,38.7,30.21,North,9,0.0,0.0,37,0.00,,,0.00,WeatherDisplay:10.37,2013-07-02 04:51:00,
2013-07-01 22:01:00,65.7,39.3,30.21,NNE,14,0.0,0.0,38,0.00,,,0.00,WeatherDisplay:10.37,2013-07-02 05:01:00,
2013-07-01 22:06:00,65.7,40.0,30.21,North,8,0.0,0.0,39,0.00,,,0.00,WeatherDisplay:10.37,2013-07-02 05:06:00,
2013-07-01 22:11:00,65.5,40.5,30.21,NNW,335,0.0,0.0,40,0.00,,,0.00,WeatherDisplay:10.37,2013-07-02 05:11:00,
2013-07-01 22:16:00,65.5,40.5,30.21,NNW,333,0.0,0.0,40,0.00,,,0.00,WeatherDisplay:10.37,2013-07-02 05:16:00,
2013-07-01 22:21:00,65.3,39.7,30.21,North,360,0.0,0.0,39,0.00,,,0.00,WeatherDisplay:10.37,2013-07-02 05:21:00,
2013-07-01 22:31:00,65.3,39.7,30.21,North,3,0.0,0.0,39,0.00,,,0.00,WeatherDisplay:10.37,2013-07-02 05:31:00,
2013-07-01 22:41:00,65.3,39.7,30.21,NNE,13,0.0,0.0,39,0.00,,,0.00,WeatherDisplay:10.37,2013-07-02 05:41:00,
2013-07-01 22:51:00,65.3,39.0,30.21,North,7,0.0,0.0,38,0.00,,,0.00,WeatherDisplay:10.37,2013-07-02 05:51:00,
2013-07-01 23:01:00,65.5,38.5,30.21,NE,38,0.0,0.0,37,0.00,,,0.00,WeatherDisplay:10.37,2013-07-02 06:01:00,
2013-07-01 23:06:00,65.3,38.4,30.21,North,4,0.0,3.0,37,0.00,,,0.00,WeatherDisplay:10.37,2013-07-02 06:06:00,
2013-07-01 23:11:00,65.5,38.5,30.21,WNW,287,0.0,3.0,37,0.00,,,0.00,WeatherDisplay:10.37,2013-07-02 06:11:00,
2013-07-01 23:21:00,65.3,38.3,30.21,West,268,0.0,0.0,37,0.00,,,0.00,WeatherDisplay:10.37,2013-07-02 06:21:00,
2013-07-01 23:31:00,64.9,38.0,30.21,West,268,0.0,0.0,37,0.00,,,0.00,WeatherDisplay:10.37,2013-07-02 06:31:00,
2013-07-01 23:36:00,64.8,37.9,30.21,West,268,0.0,0.0,37,0.00,,,0.00,WeatherDisplay:10.37,2013-07-02 06:36:00,
2013-07-01 23:41:00,64.6,37.7,30.21,West,268,0.0,0.0,37,0.00,,,0.00,WeatherDisplay:10.37,2013-07-02 06:41:00,
2013-07-01 23:51:00,64.7,37.8,30.21,West,268,0.0,0.0,37,0.00,,,0.00,WeatherDisplay:10.37,2013-07-02 06:51:00,